Find Starlink 11318

NORAD ID: 61252 Int'l Des: 2024-175 Owner: SPXS Country: US Constellation: starlink operational
LEOCIRCULAR

当前视图

正在加载3D地球...

About Starlink 11318

Starlink 11318 (NORAD 61252) is a starlink constellation satellite (v2 mini d2c) launched Sep 25, 2024 by SPXS of US. It operates in LEO, CIRCULAR orbit with a mass of 960.00 kg.

关于 Starlink 11318

正在加载描述...

即将过境

Passes for default location (London). Set your location on the main map for personalized predictions.

高度历史

Loading altitude history...

两行轨道根数

1 61252U 24175K 26171.26464272 .00011207 00000-0 97459-4 0 9994
2 61252 53.1588 270.8564 0001318 46.7683 313.3445 15.69653549100644
Epoch: Jun 20, 2026 • Age: 9 hours

当前状态

高度 372.2 km
速度 7.69 km/s
星下点 -37.60°S, 95.51°E
发射日期 Sep 25, 2024
运行时间 1.7 years
类型 internet

技术详情

分类 Payload
质量 960.00 kg
干质量 910.00 kg
总质量 960.00 kg
长度 0.30 m
直径 4.10 m
跨度 29.00 m
形状 Box + pan
制造商 SPXS
平台类型 Starlink V2MD
阶段状态 In Orbit
所有者/国家 SPXS/US

Most Searched